TimeEDT,TemperatureF,Dew PointF,Humidity,Sea Level PressureIn,VisibilityMPH,Wind Direction,Wind SpeedMPH,Gust SpeedMPH,PrecipitationIn,Events,Conditions,WindDirDegrees,DateUTC
12:53 AM,48.0,39.0,71,30.43,10.0,ENE,3.5,-,N/A,,Clear,70,2013-05-02 04:53:00
1:53 AM,45.0,37.9,76,30.43,10.0,Calm,Calm,-,N/A,,Clear,0,2013-05-02 05:53:00
2:53 AM,48.0,39.0,71,30.42,10.0,Calm,Calm,-,N/A,,Clear,0,2013-05-02 06:53:00
3:53 AM,45.0,37.9,76,30.42,10.0,Calm,Calm,-,N/A,,Clear,0,2013-05-02 07:53:00
4:53 AM,44.1,37.9,79,30.42,10.0,Calm,Calm,-,N/A,,Clear,0,2013-05-02 08:53:00
5:53 AM,42.1,37.0,82,30.43,10.0,Calm,Calm,-,N/A,,Clear,0,2013-05-02 09:53:00
6:53 AM,42.1,39.0,89,30.44,10.0,Calm,Calm,-,N/A,,Clear,0,2013-05-02 10:53:00
7:53 AM,48.0,43.0,83,30.45,10.0,Calm,Calm,-,N/A,,Clear,0,2013-05-02 11:53:00
8:53 AM,52.0,43.0,71,30.45,10.0,Calm,Calm,-,N/A,,Clear,0,2013-05-02 12:53:00
9:53 AM,55.0,42.1,62,30.46,10.0,Variable,4.6,-,N/A,,Clear,0,2013-05-02 13:53:00
10:53 AM,57.9,44.1,60,30.46,10.0,Variable,4.6,-,N/A,,Clear,0,2013-05-02 14:53:00
11:53 AM,62.1,44.1,52,30.45,10.0,Calm,Calm,-,N/A,,Clear,0,2013-05-02 15:53:00
12:53 PM,64.0,46.0,52,30.42,10.0,ESE,9.2,-,N/A,,Clear,120,2013-05-02 16:53:00
1:53 PM,66.0,44.1,45,30.41,10.0,Variable,5.8,-,N/A,,Clear,0,2013-05-02 17:53:00
3:53 PM,69.1,45.0,42,30.38,10.0,Variable,5.8,-,N/A,,Clear,0,2013-05-02 19:53:00
4:53 PM,69.1,44.1,40,30.36,10.0,SSE,5.8,-,N/A,,Clear,160,2013-05-02 20:53:00
5:53 PM,68.0,41.0,37,30.35,10.0,SE,10.4,-,N/A,,Clear,140,2013-05-02 21:53:00
6:53 PM,66.0,43.0,43,30.33,10.0,SSE,9.2,-,N/A,,Clear,150,2013-05-02 22:53:00
7:53 PM,64.0,41.0,43,30.33,10.0,South,3.5,-,N/A,,Clear,170,2013-05-02 23:53:00
8:53 PM,60.1,42.1,51,30.33,10.0,Calm,Calm,-,N/A,,Clear,0,2013-05-03 00:53:00
9:53 PM,57.9,42.1,56,30.32,10.0,Calm,Calm,-,N/A,,Clear,0,2013-05-03 01:53:00
10:53 PM,53.1,43.0,69,30.32,10.0,Calm,Calm,-,N/A,,Clear,0,2013-05-03 02:53:00
11:53 PM,53.1,42.1,66,30.32,10.0,Calm,Calm,-,N/A,,Clear,0,2013-05-03 03:53:00